Change the Weather History Date:

Tuesday, June 10, 2014

  Actual Average Record
Temperature  
Mean Temperature 64 °F 65 °F  
Max Temperature 79 °F 79 °F 100 °F (1976)
Min Temperature 49 °F 52 °F 40 °F (1964)
Degree Days  
Heating Degree Days 1 3  
Month to date heating degree days 57 34  
Since 1 June heating degree days 57 34  
Since 1 July heating degree days 7524 7168  
Cooling Degree Days 0 3  
Month to date cooling degree days 1 23  
Year to date cooling degree days 41 50  
Since 1 June cooling degree days 1 23  
Growing Degree Days 14 (Base 50)    
Moisture  
Dew Point 53 °F    
Average Humidity 69    
Maximum Humidity 90    
Minimum Humidity 48    
Precipitation  
Precipitation 0.09 in 0.09 in 2.15 in (1986)
Month to date precipitation 1.31 0.99  
Year to date precipitation 6.13 7.91  
Sea Level Pressure  
Sea Level Pressure 29.77 in    
Wind  
Wind Speed 10 mph (SSE)    
Max Wind Speed 40 mph    
Max Gust Speed 49 mph    
Visibility 10 miles    
Events Rain    
T = Trace of Precipitation, MM = Missing Value Source: NWS Daily Summary

Daily Weather History Graph

Daily Weather History Graph

Search for Another Location

Airport or City:

Trip Planner

Search our weather history database for the weather conditions in past years. The results will help you decide how hot, cold, wet, or windy it might be!

Date:

Astronomy

Jun. 10, 2014 Rise Set
Actual Time 5:03 AM MDT 8:28 PM MDT
Civil Twilight 4:27 AM MDT 9:04 PM MDT
Nautical Twilight 3:39 AM MDT 9:52 PM MDT
Astronomical Twilight 2:40 AM MDT 10:52 PM MDT
Moon 5:51 PM MDT (6/10) 3:16 AM MDT (6/10)
Length of Visible Light 16h 37m
Length of Day
15h 25m
Waxing Gibbous, 92% of the Moon is Illuminated
Jun 10
Waxing Gibbous
Jun 12
Full
Jun 19
Last Quarter
Jun 27
New
Jul 5
First Quarter

Hourly Weather History & Observations

Time (MDT) Temp. Dew Point Humidity Pressure Visibility Wind Dir Wind Speed Gust Speed Precip Events Conditions
12:55 AM 52.0 °F 48.0 °F 86% 29.88 in 10.0 mi SSE 12.7 mph - N/A   Clear
1:55 AM 50.0 °F 46.9 °F 89% 29.88 in 10.0 mi Variable 3.5 mph - N/A   Clear
2:55 AM 52.0 °F 46.9 °F 83% 29.86 in 10.0 mi Variable 3.5 mph - N/A   Clear
3:55 AM 52.0 °F 46.9 °F 83% 29.84 in 10.0 mi South 9.2 mph - N/A   Clear
4:55 AM 51.1 °F 46.9 °F 86% 29.84 in 10.0 mi Calm Calm - N/A   Clear
5:55 AM 52.0 °F 46.9 °F 83% 29.84 in 10.0 mi SSE 3.5 mph - N/A   Clear
6:55 AM 55.9 °F 50.0 °F 80% 29.83 in 10.0 mi SSW 5.8 mph - N/A   Clear
7:55 AM 61.0 °F 53.1 °F 75% 29.82 in 10.0 mi SSW 9.2 mph - N/A   Clear
9:55 AM 68.0 °F 54.0 °F 61% 29.82 in 10.0 mi SW 4.6 mph - N/A   Clear
11:55 AM 73.0 °F 57.0 °F 57% 29.79 in 10.0 mi Variable 4.6 mph - N/A   Clear
1:55 PM 75.9 °F 57.0 °F 52% 29.77 in 10.0 mi East 8.1 mph - N/A   Clear
3:55 PM 79.0 °F 57.0 °F 47% 29.72 in 10.0 mi SE 13.8 mph 18.4 mph N/A   Clear
4:55 PM 78.1 °F 57.0 °F 48% 29.71 in 10.0 mi ESE 15.0 mph - N/A   Clear
5:55 PM 75.0 °F 57.0 °F 53% 29.69 in 10.0 mi East 17.3 mph 25.3 mph N/A   Clear
6:55 PM 72.0 °F 55.9 °F 57% 29.67 in 10.0 mi East 16.1 mph - N/A   Clear
7:55 PM 68.0 °F 53.1 °F 59% 29.66 in 10.0 mi East 15.0 mph - N/A   Clear
9:45 PM 66.9 °F 53.1 °F 61% 29.75 in 10.0 mi WSW 29.9 mph 44.9 mph 0.00 in Rain Light Rain
9:55 PM 62.1 °F 54.0 °F 75% 29.72 in 10.0 mi WSW 35.7 mph 46.0 mph 0.00 in Rain Light Rain
10:55 PM 61.0 °F 57.0 °F 87% 29.59 in 10.0 mi NE 10.4 mph 25.3 mph 0.09 in Rain Light Rain
11:55 PM 61.0 °F 55.9 °F 83% 29.70 in 10.0 mi West 11.5 mph - 0.00 in   Clear